This demonstration page uses our WeatherBlox Daily Observations layout. Learn more.

Left ArrowRight Arrow

Hourly Observations for April 20, 2022

Temp ( °F °C ) Dew Point ( °F °C ) Humidity (%) Winds ( mph kmh ) Pressure ( in mb ) Visibility ( mi km ) Precip ( " mm )
12:56 am 00:56 Cloudy 51 10.6 28 -2.1 41 41 SSE 20 31 29.86 1011 10 16 0.00 0.00
1:56 am 01:56 undefined 51 10.5 28 -2.2 41 41 SE 18 30 29.83 1010 10 16 0.00 0.00
2:56 am 02:56 undefined 51 10.6 29 -1.5 43 43 SE 13 20 29.82 1010 10 16 0.00 0.00
3:56 am 03:56 Cloudy 52 10.9 30 -0.9 44 44 SE 13 20 29.79 1009 10 16 0.00 0.00
4:56 am 04:56 Cloudy 52 11.1 31 -0.4 45 45 SE 16 26 29.77 1008 10 16 0.00 0.00
5:56 am 05:56 Mostly Cloudy 52 11 32 0.1 47 47 SE 20 31 29.74 1007 10 16 0.00 0.00
6:56 am 06:56 Mostly Cloudy 52 10.9 34 0.9 50 50 SE 14 22 29.74 1007 9 14 0.00 0.00
7:56 am 07:56 Mostly Cloudy 52 10.9 36 2.2 55 55 SE 15 24 29.74 1007 10 16 0.00 0.00
8:56 am 08:56 Cloudy 51 10.7 37 2.8 58 58 SE 16 26 29.74 1007 10 16 0.00 0.00
9:56 am 09:56 Cloudy 52 11 38 3.1 59 59 SE 16 26 29.72 1007 10 16 0.00 0.00
10:56 am 10:56 Mostly Cloudy 53 11.4 39 3.7 59 59 SE 16 26 29.72 1007 10 16 0.00 0.00
11:48 am 11:48 Cloudy with Drizzle 52 11 41 5 67 67 SSE 14 22 29.72 1007 10 16 0.00 0.00
11:56 am 11:56 Cloudy with Drizzle 51 10.8 42 5.3 69 69 SSE 13 20 29.72 1007 9 14 0.00 0.00
12:56 pm 12:56 Cloudy with Drizzle 50 10.2 44 6.7 79 79 SSE 8 13 29.73 1007 6 10 0.00 0.00
1:56 pm 13:56 Mostly Cloudy 50 10.2 46 7.8 85 85 SSE 8 13 29.72 1006 10 16 0.00 0.00
2:56 pm 14:56 Cloudy 51 10.7 47 8.1 84 84 SE 7 11 29.72 1006 10 16 0.00 0.00
3:41 pm 15:41 Partly Cloudy with Mist and Fog 50 10 50 10 100 100 Calm 29.75 1007 2 2 0.00 0.00
3:56 pm 15:56 Partly Cloudy with Light Showers 51 10.3 50 10 98 98 Calm 29.75 1007 2 3 0.00 0.00
4:11 pm 16:11 Partly Cloudy with Light Showers 52 11 52 11 100 100 ESE 3 6 29.74 1007 3 5 0.00 0.00
4:27 pm 16:27 Mostly Cloudy 52 11 50 10 94 94 Calm 29.75 1007 8 13 0.00 0.00
4:56 pm 16:56 Cloudy 52 11.2 51 10.7 97 97 ENE 3 6 29.75 1008 10 16 0.00 0.00
5:56 pm 17:56 Partly Cloudy 54 12.4 50 9.9 85 85 E 3 6 29.76 1008 10 16 0.00 0.00
6:56 pm 18:56 Mostly Sunny 56 13.1 49 9.5 79 79 Calm 29.79 1009 10 16 0.00 0.00
7:56 pm 19:56 Sunny 54 12.1 48 8.9 81 81 Calm 29.83 1010 10 16 0.00 0.00
8:56 pm 20:56 Clear 49 9.3 47 8.5 95 95 Calm 29.86 1011 10 16 0.00 0.00
9:56 pm 21:56 Clear 47 8.3 47 8.3 100 100 Calm 29.93 1014 8 13 0.00 0.00
10:56 pm 22:56 Clear with Mist and Fog 46 7.7 46 7.7 100 100 Calm 29.97 1015 5 8 0.00 0.00
11:33 pm 23:33 Mostly Clear with Mist and Fog 43 6 43 6 100 100 Calm 29.98 1015 7 11 0.00 0.00
11:48 pm 23:48 Mostly Clear with Mist and Fog 43 6 43 6 100 100 Calm 29.98 1015 5 8 0.00 0.00
11:56 pm 23:56 Mostly Clear with Fog 43 6 43 6 100 100 E 3 6 29.98 1015 3 5 0.00 0.00

Powered by AerisWeather